Wind_Speed
12 11 10 9 8 7 5 4 3 3 4 6 8 9 10 9 8 8 9 10 10 10 10 9 10 10 9 9 9 10 11 11 11 12 12 13 13 13 13 13 13 13 12 12 11 11 10 10 9
12 11 11 10 8 8 6 4 4 5 7 8 10 11 10 10 9 9 10 10 11 11 10 10 11 10 10 10 10 11 12 12 12 12 13 13 13 13 13 13 13 13 13 12 12 12 11 11 11
12 11 11 10 9 8 6 6 6 8 9 10 11 12 12 12 11 11 11 11 11 11 11 11 12 11 11 12 12 12 12 13 13 13 14 14 14 14 14 14 14 14 13 13 13 13 13 12 12
12 10 10 10 8 7 6 6 5 9 13 13 13 15 14 13 13 12 13 13 13 13 13 13 13 13 13 13 13 13 13 13 14 14 14 14 15 15 15 15 15 15 14 14 14 14 14 13 13
11 10 10 10 8 8 9 8 8 11 15 16 16 16 16 15 14 13 13 14 14 14 14 14 14 14 14 14 14 15 15 15 15 15 15 15 16 16 16 16 16 15 15 15 15 15 15 15 14
11 10 10 10 9 10 10 9 10 13 16 17 17 18 18 17 16 15 13 14 14 15 16 16 16 15 15 15 15 16 16 16 16 16 16 16 16 16 16 16 16 16 16 15 16 16 16 16 15
11 11 12 11 11 11 10 10 12 15 18 18 19 20 19 17 17 16 14 14 16 16 17 17 17 16 16 16 16 17 17 17 17 17 17 17 17 17 17 17 17 17 16 16 16 16 17 17 17
12 11 12 12 12 11 11 12 14 16 19 21 22 22 20 19 19 17 16 16 16 16 18 17 17 17 17 17 17 18 18 18 18 18 18 17 17 18 18 17 18 18 18 17 17 18 18 18 18
12 12 13 14 14 12 11 13 15 17 20 22 23 22 22 22 21 20 18 17 17 17 17 18 18 18 19 19 19 19 19 19 19 19 19 19 18 18 19 19 19 19 19 19 19 19 19 19 19
13 13 14 14 15 13 13 14 15 17 20 22 24 24 24 24 21 21 20 18 17 17 17 18 19 20 20 20 20 20 20 20 20 20 20 20 20 20 20 20 20 20 20 21 20 20 20 20 20
13 14 15 14 15 15 15 16 17 19 20 22 24 24 23 23 22 22 22 20 18 18 18 18 20 21 21 21 21 21 21 21 20 20 20 20 20 20 21 22 22 21 21 21 21 22 22 21 21
15 15 16 16 16 17 17 18 19 20 23 23 24 23 22 23 23 22 22 21 20 20 20 20 20 21 21 22 21 21 22 22 21 21 20 20 21 21 22 22 22 22 22 22 22 22 22 22 22
15 15 16 16 16 16 17 17 20 21 23 23 25 25 25 24 23 22 24 24 23 22 22 22 23 22 22 22 22 22 22 22 22 22 22 22 21 22 22 23 23 22 23 23 22 22 22 23 23
14 15 14 15 15 16 17 16 19 20 21 21 22 24 24 23 23 24 24 25 25 24 24 24 24 22 23 23 23 23 23 23 23 22 22 22 23 23 22 24 23 23 23 23 23 23 22 23 23
13 13 14 15 16 15 17 17 17 17 19 20 21 23 23 23 23 24 24 25 26 25 25 25 25 24 24 24 23 23 24 24 24 24 23 24 23 23 23 24 24 24 24 24 23 23 23 23 23
12 13 13 14 16 16 17 17 16 18 20 21 22 23 24 24 24 24 26 26 25 25 26 26 26 26 25 25 25 24 24 24 24 24 24 24 24 24 24 24 25 26 25 24 24 24 24 24 24
12 13 14 14 16 16 18 18 19 20 21 21 22 24 25 24 25 25 26 24 25 26 27 28 27 25 27 27 26 26 26 26 25 25 25 25 25 25 25 25 25 25 24 25 25 25 24 24 24
13 14 15 15 15 18 19 20 21 22 22 22 23 23 23 24 25 25 26 27 28 27 28 28 28 27 27 27 27 27 27 27 26 25 25 25 25 25 26 26 26 25 25 25 25 25 25 25 25
13 15 15 15 16 18 19 20 21 22 23 23 23 23 24 25 26 26 27 27 27 27 28 29 30 29 29 30 29 29 29 28 27 26 26 26 25 25 25 25 25 26 26 26 25 25 25 25 26
14 14 15 15 16 18 19 19 21 22 24 24 24 24 25 26 26 26 26 26 27 28 29 29 30 30 30 30 30 29 29 28 27 27 27 27 26 26 25 24 25 25 25 25 26 26 26 26 26
14 16 17 17 18 19 21 21 22 22 23 24 24 25 26 26 26 26 25 26 26 27 28 29 29 30 30 30 28 28 28 28 28 28 28 28 27 27 26 26 26 26 25 26 26 26 26 26 26
15 16 17 18 19 20 22 23 22 23 24 24 24 25 27 26 26 25 25 26 27 27 28 28 28 28 29 29 29 28 28 28 27 28 27 27 27 26 26 25 25 26 26 25 25 26 26 26 26
16 16 17 19 20 21 22 24 23 23 23 24 25 26 25 25 24 23 25 27 28 28 28 28 27 26 26 27 27 28 28 28 27 27 26 27 26 25 25 24 24 24 24 24 25 25 25 25 26
17 18 19 20 21 21 21 24 22 23 23 24 25 25 25 24 23 25 26 27 28 29 29 28 27 26 26 26 26 27 27 27 27 26 26 27 25 24 22 22 22 23 23 24 24 25 24 24 25
19 21 22 21 21 20 21 23 22 22 22 23 24 24 24 24 25 26 27 27 27 28 29 28 28 27 26 27 26 26 26 27 26 26 25 25 24 23 22 22 23 24 24 24 24 25 25 26 26
21 22 23 24 23 22 22 23 22 22 22 23 24 24 23 25 25 25 26 27 27 28 29 29 27 27 26 26 26 26 27 26 26 25 25 24 24 24 23 23 23 23 23 23 24 24 25 25 26
21 22 23 25 25 25 24 23 22 22 22 23 24 24 24 25 25 24 24 25 26 27 28 27 26 26 25 24 24 25 25 25 24 23 24 24 24 23 23 23 23 23 23 23 23 23 23 24 24
22 23 24 25 26 26 24 24 24 24 23 23 23 23 24 24 24 25 24 24 26 27 26 26 26 24 23 22 22 23 23 23 22 21 21 21 21 21 21 22 22 22 22 22 22 21 21 21 22
21 22 23 24 25 26 27 25 24 25 25 25 26 25 24 24 24 23 24 24 25 25 25 25 24 23 21 21 21 21 21 21 21 21 21 21 21 21 21 21 22 22 21 21 21 21 21 21 22
22 22 23 25 26 27 28 27 25 25 25 25 25 26 25 23 23 23 24 23 24 24 23 23 22 21 21 20 20 20 21 20 20 20 19 19 20 20 20 20 21 21 21 21 21 20 21 22 21
Wind_Direction
173 170 168 163 167 172 178 183 214 265 292 315 317 318 320 325 324 319 320 318 317 321 323 322 319 316 314 310 304 302 300 300 300 301 301 302 301 300 301 301 300 299 298 296 295 294 294 294 293
177 175 174 174 182 187 197 219 243 275 290 302 304 305 309 312 312 310 309 311 314 315 315 315 314 311 308 304 301 298 297 297 296 297 298 298 298 298 297 297 295 294 294 293 291 291 291 291 291
180 179 180 183 194 203 208 233 263 283 288 292 294 297 302 302 303 304 304 306 309 309 309 310 309 306 302 298 296 296 295 295 295 295 295 295 294 294 294 292 291 290 289 288 286 287 288 289 289
183 183 187 193 205 220 234 255 274 291 292 294 296 296 293 294 297 303 305 303 303 304 307 307 306 303 300 296 293 292 293 293 292 292 292 292 292 292 290 289 287 286 285 283 282 283 283 285 286
185 184 190 198 215 229 246 258 273 287 289 293 296 298 291 292 295 300 302 299 300 303 305 304 302 299 296 294 292 289 291 291 291 289 290 290 290 289 287 286 285 284 283 283 281 279 280 281 283
189 189 189 198 215 233 246 259 275 282 290 293 295 296 294 292 293 297 295 295 298 300 299 298 297 295 293 291 290 289 289 290 289 288 289 288 286 286 286 287 284 283 282 281 281 278 278 279 279
196 193 193 206 228 242 256 267 279 285 289 292 295 298 296 294 293 293 290 292 295 298 298 296 295 293 292 289 288 290 289 288 287 287 286 285 284 284 284 285 284 283 281 281 281 279 279 278 277
201 202 207 217 233 249 260 267 274 281 289 293 295 297 296 294 293 292 291 291 290 293 296 294 292 292 291 290 290 289 289 288 287 286 285 285 285 284 282 283 283 282 281 280 280 279 279 278 277
207 208 216 226 236 250 263 269 274 282 287 291 294 295 295 295 292 289 288 289 288 289 293 290 288 289 289 289 288 288 287 286 286 285 283 283 283 283 282 282 282 281 279 278 279 279 278 278 277
214 217 222 230 242 253 261 268 277 283 288 292 294 295 296 294 292 290 289 288 288 287 290 285 283 287 285 285 285 285 285 284 283 283 283 282 282 282 281 280 281 280 278 277 278 279 277 277 277
220 226 230 236 249 256 265 271 275 282 286 289 293 295 293 292 290 292 293 290 289 291 290 287 284 284 283 283 283 283 284 283 283 281 282 280 281 281 281 280 280 281 280 277 277 277 276 275 276
228 236 239 246 255 261 265 271 274 281 284 287 291 292 292 294 296 294 293 296 295 292 292 290 286 285 284 284 283 281 282 283 284 281 279 281 281 280 279 280 280 281 280 277 277 277 274 274 274
233 239 246 254 261 270 272 275 279 280 284 288 291 292 294 297 296 296 298 299 298 296 294 290 288 284 282 283 282 282 283 283 283 282 282 280 279 279 278 277 279 281 282 278 275 275 273 273 272
239 247 254 263 273 279 281 281 282 282 287 291 293 294 293 295 295 297 297 298 298 295 293 293 291 286 283 283 282 282 283 281 280 281 281 281 280 278 279 278 278 280 280 278 276 275 274 273 271
250 258 264 272 275 278 280 282 288 290 293 295 296 296 295 296 297 298 298 300 300 295 293 292 290 288 286 282 282 282 283 282 282 280 280 281 281 281 282 278 276 278 278 276 276 274 272 271 271
261 267 273 276 279 283 286 287 287 290 292 296 298 300 298 296 297 298 299 298 297 295 294 294 290 287 285 282 280 283 283 283 281 280 281 282 282 282 283 279 277 276 276 276 275 273 272 270 269
267 273 280 279 281 283 285 288 288 289 292 295 297 300 299 297 299 299 301 300 299 297 297 296 293 289 287 286 283 284 282 281 280 280 281 283 285 284 283 281 279 276 275 275 275 273 272 269 268
273 276 280 282 283 283 283 285 287 289 290 291 294 298 297 298 300 299 299 299 299 298 297 297 294 289 288 287 284 284 285 281 280 281 281 281 283 284 283 281 279 277 275 274 274 274 272 268 267
277 278 282 288 289 289 290 288 290 289 291 292 293 295 296 298 300 300 299 298 297 299 299 297 296 291 289 289 285 284 284 280 278 278 279 279 281 281 281 279 277 277 275 274 272 272 271 270 269
282 286 289 289 288 289 288 290 291 290 291 293 293 294 296 296 298 300 299 297 298 299 297 295 295 291 291 291 286 285 284 281 278 279 277 278 279 279 278 280 280 279 276 275 273 272 271 270 269
287 290 292 292 290 287 288 289 291 293 292 292 295 296 296 296 297 297 296 298 301 300 297 296 296 294 293 292 287 285 285 282 279 279 276 277 278 279 278 279 280 279 276 276 273 272 271 270 270
289 289 290 292 292 289 290 291 292 292 294 293 294 295 296 295 294 296 298 301 302 301 300 300 298 295 293 290 287 287 286 284 281 280 279 276 277 276 277 279 279 279 279 277 273 271 270 269 269
289 288 291 295 296 295 292 293 294 296 295 293 292 296 296 296 294 297 301 302 302 303 304 304 299 294 294 292 288 287 284 282 281 280 279 277 275 275 275 276 277 279 280 277 275 273 270 269 268
293 290 290 293 296 297 298 300 299 299 297 295 294 297 299 299 298 302 302 301 302 303 304 303 300 295 296 294 291 291 289 286 282 280 279 280 276 274 274 274 276 279 279 278 275 274 270 269 269
295 295 295 296 299 301 303 302 306 305 303 299 297 299 301 303 304 304 301 300 301 302 303 301 301 296 295 294 292 291 290 290 284 281 282 281 279 278 276 275 277 277 278 279 278 276 272 270 270
297 297 300 302 304 304 303 304 309 310 310 309 305 302 299 301 303 305 304 301 301 303 304 301 300 299 296 295 293 291 290 289 287 284 284 284 281 277 276 275 277 277 277 278 279 277 274 273 272
299 299 300 301 303 304 306 307 308 311 312 310 309 307 303 303 302 303 305 304 303 303 305 305 304 302 297 296 294 292 290 290 290 287 286 284 281 278 277 278 280 281 280 279 279 277 277 275 271
296 298 298 298 299 301 304 306 308 310 309 309 306 307 306 308 306 304 305 304 303 303 304 305 304 301 299 297 295 295 293 290 289 289 289 286 281 279 279 279 279 281 280 280 278 277 278 276 272
294 292 294 297 300 299 303 306 309 310 313 312 312 311 304 307 307 306 306 306 305 303 303 303 302 300 300 299 297 295 293 290 290 290 287 284 281 279 278 280 281 282 281 281 280 277 277 276 273
295 292 291 293 294 296 299 304 306 308 311 312 312 314 310 305 306 305 305 305 306 305 303 303 303 300 300 298 296 296 296 294 293 293 290 286 281 278 277 279 280 280 280 282 280 278 278 277 275
Height
5917 5918 5919 5920 5921 5921 5919 5920 5919 5919 5920 5921 5921 5920 5919 5919 5919 5920 5916 5914 5913 5912 5910 5909 5908 5908 5907 5906 5906 5905 5904 5903 5902 5901 5900 5899 5898 5897 5896 5895 5894 5892 5891 5890 5889 5888 5887 5886 5885
5916 5918 5919 5920 5920 5919 5919 5919 5919 5919 5919 5920 5920 5919 5919 5918 5918 5917 5915 5913 5911 5910 5909 5908 5907 5906 5905 5905 5904 5903 5903 5902 5901 5900 5899 5898 5897 5896 5895 5894 5892 5891 5890 5889 5888 5886 5885 5884 5883
5916 5917 5919 5919 5919 5919 5918 5918 5918 5918 5918 5918 5919 5918 5918 5917 5916 5915 5913 5912 5910 5909 5908 5907 5906 5905 5904 5903 5902 5902 5901 5900 5899 5898 5897 5896 5895 5894 5893 5892 5891 5890 5888 5887 5886 5885 5884 5882 5882
5915 5917 5918 5919 5917 5917 5917 5917 5917 5917 5916 5916 5916 5916 5915 5915 5914 5913 5911 5909 5908 5907 5906 5905 5904 5903 5902 5901 5901 5900 5899 5898 5897 5896 5895 5894 5893 5892 5891 5890 5889 5888 5887 5885 5884 5883 5882 5881 5880
5914 5916 5917 5916 5916 5916 5915 5915 5916 5915 5914 5913 5914 5914 5913 5912 5911 5910 5908 5907 5906 5905 5904 5903 5902 5901 5900 5899 5898 5898 5897 5896 5895 5894 5893 5892 5891 5889 5888 5887 5886 5885 5885 5883 5882 5881 5880 5878 5877
5914 5915 5916 5915 5914 5914 5914 5913 5913 5913 5911 5911 5912 5911 5910 5910 5909 5908 5906 5904 5903 5902 5901 5900 5900 5899 5898 5897 5896 5895 5894 5893 5892 5891 5890 5889 5888 5887 5886 5885 5884 5883 5882 5881 5880 5878 5877 5876 5875
5913 5914 5914 5913 5912 5912 5912 5912 5912 5911 5910 5910 5909 5909 5907 5905 5906 5905 5904 5902 5900 5899 5898 5897 5896 5895 5894 5893 5892 5892 5891 5890 5889 5888 5887 5885 5884 5884 5883 5882 5881 5880 5879 5878 5877 5875 5874 5873 5872
5911 5913 5912 5912 5911 5910 5910 5909 5909 5909 5908 5907 5907 5906 5905 5904 5902 5902 5901 5900 5898 5897 5895 5894 5893 5892 5891 5890 5889 5888 5887 5886 5885 5884 5883 5882 5881 5880 5879 5878 5877 5876 5875 5874 5873 5872 5871 5869 5868
5909 5911 5910 5909 5909 5908 5908 5908 5907 5906 5906 5905 5904 5903 5903 5901 5899 5899 5898 5897 5895 5893 5891 5890 5890 5889 5888 5887 5885 5884 5883 5881 5881 5880 5879 5878 5877 5876 5875 5874 5873 5872 5871 5870 5869 5868 5867 5866 5865
5907 5908 5908 5907 5906 5906 5905 5905 5904 5904 5903 5902 5901 5900 5898 5897 5896 5895 5894 5893 5891 5890 5888 5886 5885 5885 5884 5882 5881 5880 5879 5877 5876 5875 5875 5874 5873 5872 5870 5870 5869 5868 5867 5866 5865 5864 5863 5862 5860
5905 5905 5905 5905 5904 5903 5903 5902 5902 5901 5900 5899 5898 5897 5895 5893 5892 5891 5890 5888 5887 5885 5884 5883 5882 5881 5879 5878 5877 5876 5874 5873 5871 5870 5870 5869 5868 5867 5866 5865 5864 5863 5862 5861 5860 5860 5859 5857 5856
5903 5903 5903 5902 5902 5901 5900 5899 5899 5899 5898 5896 5895 5893 5891 5889 5887 5886 5885 5883 5883 5881 5880 5879 5877 5876 5875 5873 5872 5871 5870 5868 5867 5865 5865 5864 5863 5862 5861 5860 5859 5858 5857 5857 5856 5855 5854 5853 5852
5900 5900 5899 5900 5899 5899 5898 5897 5896 5895 5894 5893 5891 5890 5888 5886 5884 5882 5880 5879 5878 5877 5876 5876 5874 5872 5870 5868 5867 5866 5865 5863 5862 5860 5860 5859 5858 5857 5856 5855 5854 5853 5852 5851 5850 5850 5848 5847 5847
5897 5897 5897 5897 5896 5895 5894 5893 5892 5891 5890 5889 5887 5885 5883 5882 5880 5878 5876 5875 5873 5872 5871 5870 5868 5867 5865 5863 5862 5861 5859 5858 5855 5855 5854 5853 5852 5851 5850 5849 5848 5847 5846 5845 5844 5844 5843 5842 5841
5894 5895 5894 5894 5892 5891 5889 5888 5888 5886 5885 5883 5882 5881 5879 5877 5875 5874 5872 5871 5869 5867 5866 5865 5863 5861 5859 5857 5856 5855 5854 5852 5851 5850 5848 5847 5846 5845 5844 5843 5842 5841 5840 5839 5838 5838 5837 5836 5836
5892 5892 5891 5890 5888 5887 5886 5885 5884 5881 5880 5878 5878 5876 5874 5873 5871 5869 5868 5865 5864 5862 5860 5858 5857 5853 5851 5851 5849 5848 5847 5846 5845 5844 5843 5841 5840 5839 5838 5837 5836 5835 5834 5833 5832 5832 5831 5830 5830
5889 5888 5887 5886 5885 5882 5881 5880 5879 5877 5876 5874 5873 5871 5870 5868 5866 5864 5862 5859 5857 5856 5854 5851 5849 5847 5845 5843 5842 5842 5840 5839 5838 5837 5836 5835 5834 5833 5831 5830 5829 5828 5827 5826 5826 5825 5825 5824 5824
5886 5884 5883 5882 5881 5879 5877 5876 5875 5873 5872 5870 5869 5867 5866 5863 5861 5859 5857 5855 5853 5851 5849 5845 5843 5841 5839 5837 5835 5834 5833 5832 5831 5830 5829 5828 5827 5826 5825 5823 5822 5821 5820 5819 5819 5818 5818 5817 5817
5882 5880 5879 5879 5877 5875 5873 5872 5871 5869 5867 5865 5864 5862 5860 5859 5857 5855 5853 5850 5848 5846 5843 5840 5837 5834 5833 5830 5828 5827 5826 5824 5824 5823 5822 5821 5820 5819 5818 5816 5815 5814 5813 5812 5812 5811 5811 5810 5810
5879 5877 5875 5875 5873 5871 5868 5867 5866 5864 5862 5861 5859 5857 5855 5853 5851 5850 5847 5844 5842 5840 5837 5834 5831 5829 5826 5824 5822 5821 5819 5817 5816 5815 5814 5814 5813 5812 5811 5810 5808 5807 5806 5805 5805 5804 5803 5803 5802
5875 5873 5871 5870 5869 5867 5865 5863 5861 5859 5856 5855 5853 5852 5850 5848 5846 5843 5841 5838 5836 5834 5830 5827 5825 5822 5820 5817 5814 5813 5811 5810 5808 5808 5807 5806 5806 5805 5804 5802 5801 5800 5799 5797 5797 5796 5796 5796 5795
5871 5870 5867 5866 5864 5862 5860 5857 5857 5854 5851 5850 5848 5846 5845 5842 5840 5837 5835 5833 5831 5828 5824 5821 5818 5815 5813 5810 5808 5805 5803 5802 5801 5800 5799 5798 5797 5796 5795 5794 5793 5792 5791 5790 5789 5788 5788 5788 5787
5867 5866 5864 5862 5859 5858 5855 5852 5851 5848 5846 5844 5843 5841 5839 5836 5833 5831 5829 5827 5824 5821 5818 5815 5812 5809 5806 5803 5801 5799 5797 5795 5794 5792 5791 5790 5789 5788 5788 5786 5786 5785 5784 5783 5782 5781 5780 5780 5779
5863 5862 5860 5858 5855 5853 5851 5847 5845 5842 5840 5839 5837 5835 5833 5830 5827 5825 5823 5821 5818 5815 5812 5809 5806 5803 5800 5797 5795 5793 5790 5788 5787 5785 5784 5783 5782 5781 5780 5779 5778 5777 5777 5776 5775 5773 5773 5772 5772
5859 5857 5855 5853 5850 5849 5846 5842 5841 5838 5835 5833 5831 5829 5827 5824 5822 5820 5817 5815 5812 5809 5807 5803 5799 5796 5793 5790 5788 5786 5784 5782 5780 5778 5777 5776 5775 5774 5773 5772 5771 5770 5769 5768 5767 5766 5765 5764 5764
5855 5853 5850 5847 5845 5843 5841 5837 5837 5833 5830 5828 5825 5823 5820 5818 5816 5814 5811 5808 5806 5803 5800 5796 5792 5789 5785 5783 5781 5779 5777 5775 5774 5772 5770 5769 5768 5767 5766 5765 5764 5763 5762 5761 5760 5758 5757 5756 5756
5850 5848 5846 5843 5840 5838 5836 5833 5832 5829 5826 5823 5820 5817 5814 5813 5811 5808 5805 5802 5799 5796 5793 5789 5785 5782 5779 5776 5774 5772 5770 5769 5767 5765 5763 5762 5761 5760 5759 5758 5757 5756 5755 5754 5752 5751 5750 5749 5748
5847 5844 5841 5838 5835 5832 5830 5828 5827 5824 5820 5818 5814 5811 5809 5807 5804 5802 5799 5795 5792 5789 5786 5783 5780 5776 5773 5770 5767 5765 5764 5762 5761 5759 5757 5755 5754 5753 5753 5751 5750 5749 5748 5746 5745 5744 5743 5742 5741
5843 5840 5836 5833 5830 5827 5823 5825 5822 5819 5815 5812 5809 5806 5803 5801 5798 5795 5793 5790 5786 5783 5780 5777 5774 5771 5767 5765 5762 5760 5758 5756 5754 5753 5751 5749 5748 5747 5746 5745 5744 5743 5741 5740 5739 5738 5737 5736 5735
5836 5834 5831 5828 5825 5822 5818 5819 5816 5813 5810 5807 5804 5801 5798 5795 5792 5790 5787 5784 5780 5777 5774 5771 5768 5765 5762 5759 5757 5755 5752 5750 5749 5747 5746 5744 5742 5741 5740 5739 5738 5737 5736 5734 5733 5732 5730 5729 5728